TimeCST,TemperatureF,Dew PointF,Humidity,Sea Level PressureIn,VisibilityMPH,Wind Direction,Wind SpeedMPH,Gust SpeedMPH,PrecipitationIn,Events,Conditions,WindDirDegrees,DateUTC
12:53 AM,27.0,10.9,51,30.18,10.0,NNE,16.1,-,N/A,,Mostly Cloudy,30,2014-01-27 06:53:00
1:53 AM,26.1,3.9,39,30.22,10.0,NNE,23.0,31.1,N/A,,Overcast,20,2014-01-27 07:53:00
2:53 AM,24.1,3.0,40,30.24,10.0,NNE,18.4,27.6,N/A,,Overcast,20,2014-01-27 08:53:00
3:53 AM,21.9,3.0,44,30.26,10.0,NNE,17.3,26.5,N/A,,Overcast,30,2014-01-27 09:53:00
4:53 AM,21.0,1.0,42,30.26,10.0,NE,17.3,-,N/A,,Overcast,40,2014-01-27 10:53:00
5:53 AM,19.9,-0.9,40,30.27,10.0,NE,15.0,-,N/A,,Overcast,40,2014-01-27 11:53:00
6:53 AM,19.9,-0.9,40,30.30,10.0,NE,9.2,-,N/A,,Overcast,40,2014-01-27 12:53:00
7:53 AM,19.0,-2.0,40,30.32,10.0,NE,12.7,-,N/A,,Overcast,50,2014-01-27 13:53:00
8:53 AM,19.0,-2.0,40,30.33,10.0,ENE,10.4,-,N/A,,Overcast,70,2014-01-27 14:53:00
9:53 AM,19.9,-2.0,38,30.37,10.0,ENE,9.2,-,N/A,,Overcast,70,2014-01-27 15:53:00
10:53 AM,19.9,-2.0,38,30.40,10.0,ENE,6.9,-,N/A,,Overcast,60,2014-01-27 16:53:00
11:53 AM,19.9,-2.9,37,30.40,10.0,Variable,3.5,-,N/A,,Overcast,0,2014-01-27 17:53:00
12:53 PM,21.0,-2.9,35,30.37,10.0,Variable,4.6,-,N/A,,Overcast,0,2014-01-27 18:53:00
1:53 PM,21.9,-2.9,34,30.35,10.0,ESE,5.8,-,N/A,,Overcast,110,2014-01-27 19:53:00
2:53 PM,21.9,-2.9,34,30.31,10.0,East,9.2,-,N/A,,Overcast,80,2014-01-27 20:53:00
3:53 PM,21.9,-2.9,34,30.30,10.0,East,8.1,-,N/A,,Overcast,90,2014-01-27 21:53:00
4:53 PM,21.0,-4.0,33,30.30,10.0,East,10.4,-,N/A,,Overcast,100,2014-01-27 22:53:00
5:53 PM,19.0,-6.0,33,30.31,10.0,East,11.5,-,N/A,,Overcast,100,2014-01-27 23:53:00
6:53 PM,18.0,-7.1,33,30.34,10.0,East,11.5,-,N/A,,Overcast,100,2014-01-28 00:53:00
7:53 PM,17.1,-8.0,33,30.36,10.0,East,9.2,-,N/A,,Overcast,100,2014-01-28 01:53:00
8:53 PM,17.1,-7.1,34,30.37,10.0,East,8.1,-,N/A,,Overcast,80,2014-01-28 02:53:00
9:53 PM,16.0,-7.1,36,30.38,10.0,East,10.4,-,N/A,,Overcast,90,2014-01-28 03:53:00
10:53 PM,15.1,-8.0,36,30.40,10.0,East,9.2,-,N/A,,Overcast,100,2014-01-28 04:53:00
11:53 PM,12.9,1.0,59,30.42,3.0,East,6.9,-,0.00,Snow,Light Snow,80,2014-01-28 05:53:00